KE5KZS Weather Reports


Display with metric or nautical units.
time (UTC)temp
F
wind
direction
speed
MPH
gust
MPH
rain 1hr
in
rain 24hr
in
rain mn
in
humidity
%
barometer
mb
20260504233516 81 158 7.0 13.0 0.00 0.00 0.00 63 1004.5
20260504232535 81 158 7.0 12.0 0.00 0.00 0.00 63 1004.5
20260504231516 81 158 5.0 10.0 0.00 0.00 0.00 61 1004.4
20260504230515 81 158 9.0 19.0 0.00 0.00 0.00 61 1004.5
20260504225515 82 203 9.0 21.0 0.00 0.00 0.00 60 1004.6
20260504224516 83 180 8.0 19.0 0.00 0.00 0.00 59 1004.9
20260504223515 83 203 6.0 14.0 0.00 0.00 0.00 59 1004.8
20260504222516 84 180 7.0 12.0 0.00 0.00 0.00 59 1004.7
20260504221516 83 180 6.0 14.0 0.00 0.00 0.00 59 1004.8
20260504220515 83 203 5.0 14.0 0.00 0.00 0.00 59 1005.1
20260504215515 84 135 7.0 15.0 0.00 0.00 0.00 58 1005.0
20260504214516 84 180 8.0 20.0 0.00 0.00 0.00 58 1005.1
20260504213536 84 158 8.0 19.0 0.00 0.00 0.00 58 1005.3
20260504212516 84 203 7.0 16.0 0.00 0.00 0.00 58 1005.7
20260504211536 85 158 7.0 15.0 0.00 0.00 0.00 57 1006.0
20260504210516 84 158 7.0 17.0 0.00 0.00 0.00 58 1006.0
20260504205515 84 158 7.0 17.0 0.00 0.00 0.00 58 1006.1
20260504204515 84 180 9.0 17.0 0.00 0.00 0.00 57 1006.4
20260504204020 84 180 7.0 11.0 0.00 0.00 0.00 57 1006.4
20260504203515 84 180 7.0 16.0 0.00 0.00 0.00 58 1006.5
20260504202516 83 180 8.0 17.0 0.00 0.00 0.00 58 1006.7
20260504201536 83 158 7.0 21.0 0.00 0.00 0.00 57 1006.9
20260504200515 83 180 6.0 13.0 0.00 0.00 0.00 59 1007.0
20260504195516 83 203 7.0 16.0 0.00 0.00 0.00 59 1007.5
20260504194516 83 158 8.0 17.0 0.00 0.00 0.00 58 1007.7
20260504193516 83 158 9.0 18.0 0.00 0.00 0.00 57 1007.8
20260504192516 83 158 8.0 17.0 0.00 0.00 0.00 57 1007.9
20260504191536 83 180 7.0 19.0 0.00 0.00 0.00 58 1008.0
20260504190515 82 180 6.0 14.0 0.00 0.00 0.00 58 1008.1
20260504185515 82 180 6.0 13.0 0.00 0.00 0.00 59 1008.4
20260504184535 82 158 7.0 21.0 0.00 0.00 0.00 59 1008.5
20260504183535 81 180 7.0 15.0 0.00 0.00 0.00 60 1008.5
20260504182515 81 203 7.0 17.0 0.00 0.00 0.00 59 1008.7
20260504181536 81 180 6.0 17.0 0.00 0.00 0.00 59 1008.7
20260504180515 80 180 7.0 18.0 0.00 0.00 0.00 59 1009.1
20260504175515 80 203 6.0 14.0 0.00 0.00 0.00 60 1009.0
20260504174515 79 180 8.0 20.0 0.00 0.00 0.00 59 1009.2
20260504173516 80 203 7.0 20.0 0.00 0.00 0.00 60 1009.5
20260504172515 79 203 6.0 16.0 0.00 0.00 0.00 59 1009.7
20260504171515 80 158 6.0 16.0 0.00 0.00 0.00 60 1009.9
20260504170516 79 203 7.0 15.0 0.00 0.00 0.00 60 1010.0
20260504150516 73 158 6.0 15.0 0.00 0.00 0.00 66 1011.0
20260504140515 69 180 6.0 15.0 0.00 0.00 0.00 71 1011.3
20260504130516 64 180 5.0 13.0 0.00 0.00 0.00 77 1011.5
20260504081515 64 180 4.0 9.0 0.00 0.00 0.00 67 1012.1
20260504080616 64 158 4.0 10.0 0.00 0.00 0.00 66 1012.1
20260504050516 68 158 3.0 7.0 0.00 0.00 0.00 58 1014.3
20260504045516 68 158 4.0 8.0 0.00 0.00 0.00 58 1014.4
20260504044516 68 158 3.0 8.0 0.00 0.00 0.00 58 1014.4
20260504043516 68 158 4.0 6.0 0.00 0.00 0.00 57 1014.5
20260504042516 68 158 3.0 8.0 0.00 0.00 0.00 57 1014.5
20260504041516 69 180 3.0 6.0 0.00 0.00 0.00 57 1014.7
20260504040516 69 135 2.0 7.0 0.00 0.00 0.00 56 1014.7
20260504035516 69 180 3.0 6.0 0.00 0.00 0.00 55 1014.6
20260504034516 70 180 2.0 7.0 0.00 0.00 0.00 55 1014.4
20260504033516 70 158 4.0 8.0 0.00 0.00 0.00 54 1014.4
20260504032516 70 180 3.0 9.0 0.00 0.00 0.00 54 1014.4
20260504031516 71 158 4.0 8.0 0.00 0.00 0.00 53 1014.5
20260504030536 71 180 3.0 8.0 0.00 0.00 0.00 52 1014.4
20260504025516 71 158 4.0 9.0 0.00 0.00 0.00 51 1014.2
20260504024516 72 158 4.0 9.0 0.00 0.00 0.00 50 1014.2
20260504023516 72 180 5.0 10.0 0.00 0.00 0.00 49 1014.2
20260504022536 72 158 4.0 9.0 0.00 0.00 0.00 48 1013.9
20260504021516 73 180 4.0 9.0 0.00 0.00 0.00 47 1013.9
20260504020536 73 158 4.0 6.0 0.00 0.00 0.00 47 1014.0
20260504015516 74 180 5.0 10.0 0.00 0.00 0.00 46 1013.8
20260504014516 74 158 3.0 8.0 0.00 0.00 0.00 46 1013.7
20260504013536 74 158 6.0 11.0 0.00 0.00 0.00 45 1013.5
20260504012516 75 158 5.0 10.0 0.00 0.00 0.00 45 1013.4
20260504011516 75 180 3.0 11.0 0.00 0.00 0.00 44 1013.3
20260504010516 76 158 3.0 6.0 0.00 0.00 0.00 43 1013.4
20260504005516 76 180 4.0 10.0 0.00 0.00 0.00 41 1013.2
20260504004516 77 158 5.0 9.0 0.00 0.00 0.00 41 1013.2
20260504003516 77 158 5.0 10.0 0.00 0.00 0.00 41 1013.3
20260504002516 78 180 5.0 11.0 0.00 0.00 0.00 39 1013.3
20260504001516 78 203 5.0 11.0 0.00 0.00 0.00 39 1013.3
20260504000516 79 180 5.0 11.0 0.00 0.00 0.00 40 1013.3
20260503235516 79 203 6.0 11.0 0.00 0.00 0.00 39 1013.5
20260503234516 80 203 4.0 9.0 0.00 0.00 0.00 38 1013.6